Weather in Makarakskiy

Russia / Kemerovo Oblast     55°35′49″N   88°02′49″E
temp.,
°C
wind,
m/s
gust,
m/s
humid.,
%
clouds,
%
prec.,
mm/h
press.,
hPa
HPBL,
m
24 may, tue
tue2401:00+8s22680 0.0 102436
04:00+8sse22660 0.0 102427
07:00+12ese12537 0.0 1024106
10:00+18e343110 0.0 10221088
13:00+22ene34230 0.0 10191524
16:00+24ene44220 0.0 10181740
19:00+21ene47320 0.0 1018830
22:00+13e225394 0.0 101815
25 may, wed
wed2501:00+12ene2255100 0.0 101818
04:00+11ene2258100 0.0 101719
07:00+14ene2961100 0.0 1017304
10:00+20ene484695 0.0 1016755
13:00+23ne4634100 0.0 10151430
16:00+24nne4531100 0.0 10151704
19:00+22nne473787 0.0 10151437
22:00+15ene116195 0.0 101610
26 may, thu
thu2601:00+13nne116525 0.0 101610
04:00+11ne22820 0.0 101722
07:00+15ne27773 0.0 1017374
10:00+18ne56562 0.0 10161057
13:00+21ne45400 0.0 10161524
16:00+22ne45352 0.0 10141639
19:00+20ne45407 0.0 10141327
22:00+13ene310570 0.0 1014232
27 may, fri
fri2701:00+10e236619 0.0 101354
04:00+9ene226658 0.0 101216
07:00+13ene28535 0.0 1011312
10:00+17ne56392 0.0 10111260
13:00+20ne55300 0.0 10121820
16:00+20ne45245 0.0 10121943
19:00+18ene3532100 0.0 10121525
22:00+12ene22514 0.0 101410
28 may, sat
sat2801:00+9ese11610 0.0 101412
04:00+8ese22684 0.0 101515
07:00+13e2105392 0.0 1014369
10:00+19ese5632100 0.0 10131366
13:00+22e3427100 0.0 10121890
16:00+22ene3326100 0.0 10121878
19:00+20ene473773 0.0 1011707
22:00+15ese31045100 0.0 1012323